| time (UTC) | temp C | wind direction | speed KPH | gust KPH | rain 1hr cm | rain 24hr cm | rain mn cm | humidity % | barometer mb |
| 20260502160312 | 13 | 222 | 0.0 | 1.6 | 0.00 | 0.00 | 0.00 | 52 | 1013.7 |
| 20260502152241 | 13 | 264 | 0.0 | 1.6 | 0.00 | 0.00 | 0.00 | 56 | 1013.5 |
| 20260502151738 | 13 | 200 | 0.0 | 3.2 | 0.00 | 0.00 | 0.00 | 55 | 1013.7 |
| 20260502151235 | 13 | 228 | 3.2 | 3.2 | 0.00 | 0.00 | 0.00 | 56 | 1013.4 |
| 20260502150733 | 13 | 255 | 1.6 | 4.8 | 0.00 | 0.00 | 0.00 | 56 | 1013.5 |
| 20260502150229 | 13 | 238 | 1.6 | 3.2 | 0.00 | 0.00 | 0.00 | 63 | 1013.7 |
| 20260502130618 | 12 | 299 | 0.0 | 0.0 | 0.00 | 0.00 | 0.00 | 74 | 1013.3 |
| 20260502130116 | 12 | 300 | 0.0 | 0.0 | 0.00 | 0.00 | 0.00 | 77 | 1013.3 |
| 20260502123601 | 11 | 300 | 0.0 | 0.0 | 0.00 | 0.00 | 0.00 | 84 | 1013.3 |
| 20260502123058 | 11 | 300 | 0.0 | 0.0 | 0.00 | 0.00 | 0.00 | 86 | 1013.0 |
| 20260502122554 | 11 | 300 | 0.0 | 0.0 | 0.00 | 0.00 | 0.00 | 84 | 1012.9 |
| 20260502122051 | 11 | 300 | 0.0 | 0.0 | 0.00 | 0.00 | 0.00 | 84 | 1013.1 |
| 20260502121549 | 10 | 300 | 0.0 | 0.0 | 0.00 | 0.00 | 0.00 | 84 | 1013.0 |
| 20260502121046 | 11 | 300 | 0.0 | 0.0 | 0.00 | 0.00 | 0.00 | 87 | 1013.0 |
| 20260502120542 | 10 | 299 | 0.0 | 0.0 | 0.00 | 0.00 | 0.00 | 85 | 1013.0 |
| 20260502115538 | 10 | 299 | 0.0 | 0.0 | 0.00 | 0.00 | 0.00 | 85 | 1012.8 |
| 20260502115033 | 10 | 300 | 0.0 | 0.0 | 0.00 | 0.00 | 0.00 | 87 | 1012.8 |
| 20260502114530 | 10 | 300 | 0.0 | 0.0 | 0.00 | 0.00 | 0.00 | 86 | 1013.0 |
| 20260502114027 | 10 | 300 | 0.0 | 0.0 | 0.00 | 0.00 | 0.00 | 85 | 1012.8 |
| 20260502113524 | 10 | 300 | 0.0 | 0.0 | 0.00 | 0.00 | 0.00 | 84 | 1012.8 |
| 20260502113023 | 10 | 300 | 0.0 | 0.0 | 0.00 | 0.00 | 0.00 | 85 | 1012.7 |
| 20260502112520 | 10 | 300 | 0.0 | 0.0 | 0.00 | 0.00 | 0.00 | 86 | 1012.5 |
| 20260502112018 | 10 | 299 | 0.0 | 0.0 | 0.00 | 0.00 | 0.00 | 85 | 1012.6 |
| 20260502111515 | 10 | 299 | 0.0 | 0.0 | 0.00 | 0.00 | 0.00 | 83 | 1012.5 |
| 20260502111012 | 10 | 299 | 0.0 | 0.0 | 0.00 | 0.00 | 0.00 | 84 | 1012.6 |
| 20260502110509 | 10 | 300 | 0.0 | 0.0 | 0.00 | 0.00 | 0.00 | 85 | 1012.8 |
| 20260502110007 | 10 | 300 | 0.0 | 0.0 | 0.00 | 0.00 | 0.00 | 83 | 1012.7 |
| 20260502105504 | 10 | 300 | 0.0 | 0.0 | 0.00 | 0.00 | 0.00 | 84 | 1012.9 |
| 20260502105002 | 10 | 301 | 0.0 | 0.0 | 0.00 | 0.00 | 0.00 | 84 | 1012.8 |
| 20260502104459 | 10 | 300 | 0.0 | 0.0 | 0.00 | 0.00 | 0.00 | 83 | 1012.7 |
| 20260502103956 | 10 | 300 | 0.0 | 0.0 | 0.00 | 0.00 | 0.00 | 82 | 1012.7 |
| 20260502103453 | 10 | 300 | 0.0 | 0.0 | 0.00 | 0.00 | 0.00 | 82 | 1012.9 |
| 20260502102950 | 10 | 300 | 0.0 | 0.0 | 0.00 | 0.00 | 0.00 | 82 | 1012.8 |
| 20260502102447 | 10 | 300 | 0.0 | 0.0 | 0.00 | 0.00 | 0.00 | 81 | 1012.8 |
| 20260502101944 | 10 | 301 | 0.0 | 0.0 | 0.00 | 0.00 | 0.00 | 80 | 1012.7 |
| 20260502101443 | 10 | 302 | 0.0 | 0.0 | 0.00 | 0.00 | 0.00 | 80 | 1012.9 |
| 20260502100941 | 10 | 297 | 0.0 | 0.0 | 0.00 | 0.00 | 0.00 | 77 | 1012.5 |
| 20260502100439 | 10 | 297 | 0.0 | 0.0 | 0.00 | 0.00 | 0.00 | 77 | 1012.7 |
| 20260502091414 | 11 | 277 | 0.0 | 0.0 | 0.00 | 0.00 | 0.00 | 78 | 1012.3 |
| 20260502090911 | 10 | 313 | 0.0 | 1.6 | 0.00 | 0.00 | 0.00 | 80 | 1012.2 |
| 20260502090408 | 10 | 307 | 0.0 | 1.6 | 0.00 | 0.00 | 0.00 | 81 | 1012.1 |
| 20260502071302 | 10 | 22 | 1.6 | 1.6 | 0.00 | 0.00 | 0.00 | 86 | 1011.5 |
| 20260502070800 | 10 | 108 | 3.2 | 4.8 | 0.00 | 0.00 | 0.00 | 86 | 1011.2 |
| 20260502070258 | 10 | 203 | 0.0 | 0.0 | 0.00 | 0.00 | 0.00 | 86 | 1011.4 |
| 20260502065757 | 10 | 50 | 3.2 | 3.2 | 0.00 | 0.00 | 0.00 | 87 | 1011.4 |
| 20260502065254 | 10 | 200 | 0.0 | 0.0 | 0.00 | 0.00 | 0.00 | 87 | 1011.5 |
| 20260502064752 | 10 | 21 | 1.6 | 1.6 | 0.00 | 0.00 | 0.00 | 87 | 1011.5 |
| 20260502064250 | 10 | 13 | 1.6 | 1.6 | 0.00 | 0.00 | 0.00 | 87 | 1011.5 |
| 20260502063747 | 10 | 5 | 0.0 | 1.6 | 0.00 | 0.00 | 0.00 | 87 | 1011.5 |
| 20260502063245 | 10 | 102 | 1.6 | 3.2 | 0.00 | 0.00 | 0.00 | 88 | 1011.6 |
| 20260502062741 | 10 | 1 | 1.6 | 3.2 | 0.00 | 0.00 | 0.00 | 89 | 1011.6 |
| 20260502062239 | 9 | 304 | 0.0 | 0.0 | 0.00 | 0.00 | 0.00 | 90 | 1011.7 |
| 20260502061738 | 9 | 303 | 0.0 | 0.0 | 0.00 | 0.00 | 0.00 | 89 | 1011.8 |
| 20260502061235 | 9 | 303 | 0.0 | 0.0 | 0.00 | 0.00 | 0.00 | 89 | 1011.9 |
| 20260502060730 | 9 | 303 | 0.0 | 0.0 | 0.00 | 0.00 | 0.00 | 89 | 1011.8 |
| 20260502060226 | 9 | 304 | 0.0 | 0.0 | 0.00 | 0.00 | 0.00 | 89 | 1011.9 |
| 20260502055724 | 9 | 303 | 0.0 | 0.0 | 0.00 | 0.00 | 0.00 | 89 | 1011.8 |
| 20260502055222 | 9 | 303 | 0.0 | 0.0 | 0.00 | 0.00 | 0.00 | 89 | 1011.6 |
| 20260502054721 | 9 | 303 | 0.0 | 0.0 | 0.00 | 0.00 | 0.00 | 88 | 1011.7 |
| 20260502054218 | 9 | 304 | 0.0 | 0.0 | 0.00 | 0.00 | 0.00 | 88 | 1011.9 |
| 20260502053715 | 9 | 303 | 0.0 | 0.0 | 0.00 | 0.00 | 0.00 | 88 | 1011.9 |
| 20260502053212 | 9 | 303 | 0.0 | 0.0 | 0.00 | 0.00 | 0.00 | 87 | 1012.0 |
| 20260502052710 | 10 | 303 | 0.0 | 0.0 | 0.00 | 0.00 | 0.00 | 87 | 1012.0 |
| 20260502052209 | 10 | 303 | 0.0 | 1.6 | 0.00 | 0.00 | 0.00 | 86 | 1012.1 |
| 20260502051706 | 10 | 294 | 0.0 | 0.0 | 0.00 | 0.00 | 0.00 | 86 | 1012.3 |
| 20260502051204 | 10 | 300 | 1.6 | 3.2 | 0.00 | 0.00 | 0.00 | 86 | 1012.3 |
| 20260502050700 | 10 | 206 | 1.6 | 1.6 | 0.00 | 0.00 | 0.00 | 86 | 1012.3 |
| 20260502050157 | 10 | 237 | 0.0 | 0.0 | 0.00 | 0.00 | 0.00 | 85 | 1012.4 |
| 20260502045653 | 10 | 198 | 0.0 | 3.2 | 0.00 | 0.00 | 0.00 | 86 | 1012.6 |
| 20260502045151 | 9 | 231 | 1.6 | 1.6 | 0.00 | 0.00 | 0.00 | 88 | 1012.2 |
| 20260502044647 | 9 | 238 | 0.0 | 0.0 | 0.00 | 0.00 | 0.00 | 88 | 1011.9 |
| 20260502044143 | 9 | 238 | 0.0 | 0.0 | 0.00 | 0.00 | 0.00 | 87 | 1012.3 |
| 20260502043642 | 10 | 238 | 0.0 | 0.0 | 0.00 | 0.00 | 0.00 | 86 | 1012.2 |
| 20260502043139 | 10 | 238 | 0.0 | 0.0 | 0.00 | 0.00 | 0.00 | 86 | 1012.0 |
| 20260502042638 | 10 | 238 | 0.0 | 0.0 | 0.00 | 0.00 | 0.00 | 85 | 1012.1 |
| 20260502042135 | 10 | 238 | 0.0 | 0.0 | 0.00 | 0.00 | 0.00 | 85 | 1012.1 |
| 20260502041633 | 10 | 238 | 0.0 | 0.0 | 0.00 | 0.00 | 0.00 | 85 | 1011.9 |
| 20260502041130 | 10 | 238 | 0.0 | 0.0 | 0.00 | 0.00 | 0.00 | 85 | 1012.2 |
| 20260502040626 | 10 | 238 | 0.0 | 0.0 | 0.00 | 0.00 | 0.00 | 84 | 1012.5 |
| 20260502040124 | 10 | 238 | 0.0 | 0.0 | 0.00 | 0.00 | 0.00 | 84 | 1012.2 |
| 20260502035620 | 10 | 238 | 0.0 | 0.0 | 0.00 | 0.00 | 0.00 | 83 | 1012.2 |
| 20260502035117 | 10 | 238 | 0.0 | 0.0 | 0.00 | 0.00 | 0.00 | 82 | 1012.3 |
| 20260502034615 | 10 | 236 | 0.0 | 0.0 | 0.00 | 0.00 | 0.00 | 82 | 1012.1 |
| 20260502034113 | 11 | 236 | 0.0 | 0.0 | 0.00 | 0.00 | 0.00 | 81 | 1012.2 |
| 20260502033611 | 11 | 236 | 0.0 | 0.0 | 0.00 | 0.00 | 0.00 | 80 | 1012.3 |
| 20260502033108 | 11 | 236 | 0.0 | 0.0 | 0.00 | 0.00 | 0.00 | 80 | 1012.3 |
| 20260502032604 | 11 | 236 | 0.0 | 0.0 | 0.00 | 0.00 | 0.00 | 80 | 1012.4 |
| 20260502032100 | 11 | 239 | 0.0 | 1.6 | 0.00 | 0.00 | 0.00 | 80 | 1012.3 |
| 20260502031558 | 11 | 240 | 0.0 | 0.0 | 0.00 | 0.00 | 0.00 | 79 | 1012.2 |
| 20260502031056 | 11 | 240 | 0.0 | 0.0 | 0.00 | 0.00 | 0.00 | 78 | 1012.1 |
| 20260502030555 | 11 | 240 | 0.0 | 0.0 | 0.00 | 0.00 | 0.00 | 78 | 1012.6 |
| 20260502030052 | 11 | 240 | 0.0 | 0.0 | 0.00 | 0.00 | 0.00 | 77 | 1012.3 |
| 20260502025549 | 11 | 239 | 0.0 | 0.0 | 0.00 | 0.00 | 0.00 | 76 | 1012.4 |
| 20260502025047 | 12 | 241 | 0.0 | 3.2 | 0.00 | 0.00 | 0.00 | 75 | 1012.2 |
| 20260502024544 | 12 | 229 | 0.0 | 1.6 | 0.00 | 0.00 | 0.00 | 75 | 1012.2 |
| 20260502024043 | 11 | 230 | 0.0 | 1.6 | 0.00 | 0.00 | 0.00 | 75 | 1012.1 |
| 20260502023540 | 12 | 247 | 0.0 | 0.0 | 0.00 | 0.00 | 0.00 | 75 | 1012.2 |
| 20260502023037 | 12 | 305 | 0.0 | 0.0 | 0.00 | 0.00 | 0.00 | 74 | 1012.1 |
| 20260502022534 | 12 | 303 | 0.0 | 0.0 | 0.00 | 0.00 | 0.00 | 74 | 1011.8 |
| 20260502022032 | 12 | 300 | 0.0 | 0.0 | 0.00 | 0.00 | 0.00 | 74 | 1011.9 |
| 20260502021529 | 12 | 279 | 0.0 | 0.0 | 0.00 | 0.00 | 0.00 | 74 | 1011.9 |
| 20260502021025 | 12 | 279 | 0.0 | 0.0 | 0.00 | 0.00 | 0.00 | 73 | 1011.9 |
| 20260502020523 | 12 | 279 | 0.0 | 0.0 | 0.00 | 0.00 | 0.00 | 72 | 1011.7 |
| 20260502020020 | 12 | 279 | 0.0 | 0.0 | 0.00 | 0.00 | 0.00 | 72 | 1011.7 |
| 20260502015518 | 12 | 289 | 0.0 | 1.6 | 0.00 | 0.00 | 0.00 | 71 | 1011.8 |
| 20260502015014 | 12 | 339 | 0.0 | 3.2 | 0.00 | 0.00 | 0.00 | 71 | 1012.0 |
| 20260502014511 | 12 | 35 | 1.6 | 1.6 | 0.00 | 0.00 | 0.00 | 71 | 1011.7 |
| 20260502014008 | 12 | 305 | 0.0 | 0.0 | 0.00 | 0.00 | 0.00 | 70 | 1011.9 |
| 20260502013503 | 12 | 332 | 0.0 | 0.0 | 0.00 | 0.00 | 0.00 | 70 | 1011.7 |
| 20260502013000 | 13 | 291 | 0.0 | 1.6 | 0.00 | 0.00 | 0.00 | 70 | 1011.8 |
| 20260502012457 | 13 | 313 | 0.0 | 0.0 | 0.00 | 0.00 | 0.00 | 69 | 1011.8 |
| 20260502011955 | 13 | 290 | 0.0 | 0.0 | 0.00 | 0.00 | 0.00 | 68 | 1011.8 |
| 20260502011451 | 13 | 290 | 0.0 | 1.6 | 0.00 | 0.00 | 0.00 | 68 | 1011.8 |
| 20260502010948 | 13 | 291 | 0.0 | 0.0 | 0.00 | 0.00 | 0.00 | 67 | 1011.5 |
| 20260502010445 | 13 | 299 | 0.0 | 3.2 | 0.00 | 0.00 | 0.00 | 66 | 1011.3 |
| 20260502005941 | 13 | 276 | 0.0 | 0.0 | 0.00 | 0.00 | 0.00 | 65 | 1011.3 |
| 20260502005439 | 13 | 261 | 0.0 | 1.6 | 0.00 | 0.00 | 0.00 | 65 | 1011.2 |
| 20260502004937 | 14 | 282 | 1.6 | 1.6 | 0.00 | 0.00 | 0.00 | 64 | 1011.2 |
| 20260502004437 | 14 | 312 | 1.6 | 4.8 | 0.00 | 0.00 | 0.00 | 63 | 1011.3 |
| 20260502003935 | 14 | 291 | 1.6 | 4.8 | 0.00 | 0.00 | 0.00 | 63 | 1011.1 |
| 20260502003432 | 15 | 303 | 1.6 | 6.4 | 0.00 | 0.00 | 0.00 | 62 | 1011.0 |
| 20260502002928 | 15 | 301 | 1.6 | 4.8 | 0.00 | 0.00 | 0.00 | 62 | 1011.0 |
| 20260502002426 | 15 | 315 | 3.2 | 3.2 | 0.00 | 0.00 | 0.00 | 61 | 1010.8 |
| 20260502001923 | 15 | 320 | 1.6 | 4.8 | 0.00 | 0.00 | 0.00 | 60 | 1010.4 |
| 20260502001420 | 15 | 331 | 1.6 | 3.2 | 0.00 | 0.00 | 0.00 | 60 | 1010.4 |
| 20260502000918 | 15 | 303 | 1.6 | 4.8 | 0.00 | 0.00 | 0.00 | 59 | 1010.4 |
| 20260502000417 | 15 | 314 | 4.8 | 6.4 | 0.00 | 0.00 | 0.00 | 58 | 1010.4 |
| 20260501235912 | 15 | 329 | 9.7 | 12.9 | 0.00 | 0.00 | 0.00 | 57 | 1010.4 |
| 20260501235408 | 16 | 286 | 0.0 | 1.6 | 0.00 | 0.00 | 0.00 | 57 | 1010.4 |
| 20260501234903 | 16 | 307 | 1.6 | 4.8 | 0.00 | 0.00 | 0.00 | 56 | 1010.2 |
| 20260501234400 | 16 | 271 | 1.6 | 3.2 | 0.00 | 0.00 | 0.00 | 56 | 1010.4 |
| 20260501233859 | 16 | 266 | 3.2 | 3.2 | 0.00 | 0.00 | 0.00 | 55 | 1010.4 |
| 20260501233356 | 16 | 277 | 1.6 | 1.6 | 0.00 | 0.00 | 0.00 | 53 | 1010.5 |
| 20260501232851 | 16 | 269 | 0.0 | 0.0 | 0.00 | 0.00 | 0.00 | 53 | 1010.3 |
| 20260501232349 | 17 | 277 | 0.0 | 0.0 | 0.00 | 0.00 | 0.00 | 52 | 1010.3 |
| 20260501231846 | 17 | 267 | 0.0 | 0.0 | 0.00 | 0.00 | 0.00 | 51 | 1010.3 |
| 20260501231344 | 17 | 238 | 0.0 | 3.2 | 0.00 | 0.00 | 0.00 | 50 | 1010.2 |
| 20260501230842 | 17 | 282 | 0.0 | 3.2 | 0.00 | 0.00 | 0.00 | 49 | 1010.2 |
| 20260501230341 | 18 | 253 | 0.0 | 1.6 | 0.00 | 0.00 | 0.00 | 48 | 1010.3 |
| 20260501225838 | 18 | 282 | 0.0 | 3.2 | 0.00 | 0.00 | 0.00 | 49 | 1010.3 |
| 20260501225336 | 18 | 20 | 0.0 | 3.2 | 0.00 | 0.00 | 0.00 | 47 | 1010.2 |
| 20260501224831 | 18 | 281 | 0.0 | 1.6 | 0.00 | 0.00 | 0.00 | 47 | 1010.2 |
| 20260501224329 | 19 | 297 | 0.0 | 6.4 | 0.00 | 0.00 | 0.00 | 45 | 1010.1 |
| 20260501223825 | 19 | 224 | 4.8 | 6.4 | 0.00 | 0.00 | 0.00 | 45 | 1010.3 |
| 20260501223321 | 19 | 104 | 3.2 | 6.4 | 0.00 | 0.00 | 0.00 | 42 | 1010.3 |
| 20260501222817 | 20 | 65 | 1.6 | 4.8 | 0.00 | 0.00 | 0.00 | 41 | 1010.3 |
| 20260501222315 | 20 | 270 | 3.2 | 3.2 | 0.00 | 0.00 | 0.00 | 43 | 1010.4 |
| 20260501221811 | 20 | 240 | 1.6 | 6.4 | 0.00 | 0.00 | 0.00 | 41 | 1010.4 |
| 20260501221308 | 20 | 9 | 1.6 | 4.8 | 0.00 | 0.00 | 0.00 | 44 | 1010.6 |
| 20260501220807 | 20 | 25 | 0.0 | 1.6 | 0.00 | 0.00 | 0.00 | 42 | 1010.7 |
| 20260501220303 | 20 | 302 | 1.6 | 6.4 | 0.00 | 0.00 | 0.00 | 41 | 1010.6 |
| 20260501215800 | 20 | 316 | 3.2 | 6.4 | 0.00 | 0.00 | 0.00 | 40 | 1010.6 |
| 20260501215255 | 20 | 302 | 1.6 | 1.6 | 0.00 | 0.00 | 0.00 | 44 | 1010.7 |
| 20260501214751 | 20 | 149 | 3.2 | 9.7 | 0.00 | 0.00 | 0.00 | 43 | 1010.7 |
| 20260501214247 | 20 | 113 | 1.6 | 6.4 | 0.00 | 0.00 | 0.00 | 42 | 1010.8 |
| 20260501213743 | 20 | 8 | 4.8 | 6.4 | 0.00 | 0.00 | 0.00 | 42 | 1011.0 |
| 20260501213240 | 20 | 297 | 0.0 | 3.2 | 0.00 | 0.00 | 0.00 | 42 | 1010.9 |
| 20260501212736 | 20 | 282 | 0.0 | 6.4 | 0.00 | 0.00 | 0.00 | 42 | 1010.9 |
| 20260501212232 | 20 | 52 | 3.2 | 11.3 | 0.00 | 0.00 | 0.00 | 40 | 1010.8 |
| 20260501211730 | 20 | 297 | 0.0 | 4.8 | 0.00 | 0.00 | 0.00 | 39 | 1010.7 |
| 20260501211227 | 20 | 299 | 3.2 | 3.2 | 0.00 | 0.00 | 0.00 | 39 | 1010.9 |
| 20260501210724 | 20 | 8 | 3.2 | 9.7 | 0.00 | 0.00 | 0.00 | 40 | 1010.8 |
| 20260501210220 | 20 | 71 | 3.2 | 3.2 | 0.00 | 0.00 | 0.00 | 40 | 1010.9 |
| 20260501205717 | 20 | 21 | 3.2 | 4.8 | 0.00 | 0.00 | 0.00 | 40 | 1011.2 |
| 20260501205214 | 20 | 16 | 4.8 | 9.7 | 0.00 | 0.00 | 0.00 | 38 | 1011.1 |
| 20260501204711 | 20 | 315 | 0.0 | 4.8 | 0.00 | 0.00 | 0.00 | 38 | 1011.2 |
| 20260501204208 | 19 | 37 | 3.2 | 6.4 | 0.00 | 0.00 | 0.00 | 39 | 1011.0 |
| 20260501203703 | 20 | 97 | 3.2 | 6.4 | 0.00 | 0.00 | 0.00 | 38 | 1011.3 |
| 20260501203201 | 20 | 36 | 3.2 | 6.4 | 0.00 | 0.00 | 0.00 | 38 | 1011.3 |
| 20260501202658 | 20 | 54 | 4.8 | 4.8 | 0.00 | 0.00 | 0.00 | 38 | 1011.3 |
| 20260501202155 | 20 | 311 | 4.8 | 12.9 | 0.00 | 0.00 | 0.00 | 36 | 1011.3 |
| 20260501201652 | 20 | 58 | 4.8 | 6.4 | 0.00 | 0.00 | 0.00 | 38 | 1011.3 |
| 20260501201148 | 20 | 149 | 4.8 | 6.4 | 0.00 | 0.00 | 0.00 | 36 | 1011.5 |
| 20260501200645 | 20 | 82 | 4.8 | 4.8 | 0.00 | 0.00 | 0.00 | 36 | 1011.5 |
| 20260501200143 | 20 | 29 | 1.6 | 11.3 | 0.00 | 0.00 | 0.00 | 38 | 1011.7 |
| 20260501195641 | 20 | 166 | 1.6 | 9.7 | 0.00 | 0.00 | 0.00 | 35 | 1011.7 |
| 20260501195136 | 20 | 70 | 4.8 | 6.4 | 0.00 | 0.00 | 0.00 | 35 | 1011.9 |
| 20260501194631 | 20 | 276 | 0.0 | 3.2 | 0.00 | 0.00 | 0.00 | 36 | 1012.0 |
| 20260501194127 | 20 | 345 | 3.2 | 11.3 | 0.00 | 0.00 | 0.00 | 35 | 1012.1 |
| 20260501193625 | 20 | 16 | 4.8 | 6.4 | 0.00 | 0.00 | 0.00 | 32 | 1012.2 |
| 20260501193123 | 20 | 84 | 3.2 | 4.8 | 0.00 | 0.00 | 0.00 | 37 | 1012.4 |
| 20260501192620 | 20 | 314 | 4.8 | 9.7 | 0.00 | 0.00 | 0.00 | 38 | 1012.3 |
| 20260501192117 | 20 | 278 | 4.8 | 4.8 | 0.00 | 0.00 | 0.00 | 34 | 1012.3 |
| 20260501191614 | 19 | 56 | 4.8 | 6.4 | 0.00 | 0.00 | 0.00 | 36 | 1012.3 |
| 20260501191111 | 20 | 27 | 6.4 | 9.7 | 0.00 | 0.00 | 0.00 | 33 | 1012.6 |
| 20260501190608 | 19 | 286 | 0.0 | 3.2 | 0.00 | 0.00 | 0.00 | 34 | 1012.5 |
| 20260501185559 | 20 | 20 | 6.4 | 11.3 | 0.00 | 0.00 | 0.00 | 34 | 1012.8 |
| 20260501185055 | 20 | 295 | 1.6 | 9.7 | 0.00 | 0.00 | 0.00 | 36 | 1012.9 |
| 20260501184551 | 19 | 173 | 1.6 | 1.6 | 0.00 | 0.00 | 0.00 | 36 | 1012.8 |
| 20260501184046 | 19 | 54 | 4.8 | 9.7 | 0.00 | 0.00 | 0.00 | 39 | 1012.9 |
| 20260501183543 | 19 | 297 | 3.2 | 11.3 | 0.00 | 0.00 | 0.00 | 37 | 1013.1 |
| 20260501183040 | 19 | 328 | 8.0 | 11.3 | 0.00 | 0.00 | 0.00 | 34 | 1013.3 |
| 20260501182536 | 19 | 282 | 0.0 | 4.8 | 0.00 | 0.00 | 0.00 | 34 | 1013.3 |
| 20260501182033 | 20 | 64 | 8.0 | 16.1 | 0.00 | 0.00 | 0.00 | 36 | 1013.4 |
| 20260501181531 | 18 | 77 | 4.8 | 6.4 | 0.00 | 0.00 | 0.00 | 36 | 1013.3 |
| 20260501181027 | 18 | 75 | 1.6 | 6.4 | 0.00 | 0.00 | 0.00 | 36 | 1013.4 |
| 20260501180525 | 18 | 343 | 6.4 | 11.3 | 0.00 | 0.00 | 0.00 | 36 | 1013.7 |
| 20260501180021 | 18 | 286 | 3.2 | 6.4 | 0.00 | 0.00 | 0.00 | 37 | 1013.7 |
| 20260501175518 | 18 | 291 | 1.6 | 9.7 | 0.00 | 0.00 | 0.00 | 37 | 1013.8 |
| 20260501175014 | 18 | 11 | 1.6 | 3.2 | 0.00 | 0.00 | 0.00 | 41 | 1013.8 |
| 20260501174512 | 17 | 296 | 0.0 | 4.8 | 0.00 | 0.00 | 0.00 | 37 | 1014.0 |
| 20260501174009 | 17 | 59 | 4.8 | 11.3 | 0.00 | 0.00 | 0.00 | 37 | 1014.1 |
| 20260501173507 | 18 | 240 | 3.2 | 11.3 | 0.00 | 0.00 | 0.00 | 38 | 1014.2 |
| 20260501173003 | 18 | 152 | 0.0 | 9.7 | 0.00 | 0.00 | 0.00 | 36 | 1014.2 |
| 20260501172458 | 17 | 53 | 1.6 | 6.4 | 0.00 | 0.00 | 0.00 | 38 | 1014.2 |
| 20260501171954 | 17 | 281 | 0.0 | 4.8 | 0.00 | 0.00 | 0.00 | 38 | 1014.2 |
| 20260501171450 | 17 | 55 | 4.8 | 11.3 | 0.00 | 0.00 | 0.00 | 38 | 1014.3 |
| 20260501170947 | 17 | 351 | 1.6 | 4.8 | 0.00 | 0.00 | 0.00 | 36 | 1014.0 |
| 20260501170444 | 17 | 277 | 1.6 | 4.8 | 0.00 | 0.00 | 0.00 | 40 | 1014.1 |
| 20260501165942 | 17 | 32 | 3.2 | 4.8 | 0.00 | 0.00 | 0.00 | 39 | 1014.3 |
| 20260501165439 | 17 | 6 | 3.2 | 9.7 | 0.00 | 0.00 | 0.00 | 40 | 1014.6 |
| 20260501164936 | 17 | 85 | 6.4 | 11.3 | 0.00 | 0.00 | 0.00 | 38 | 1014.5 |
| 20260501164434 | 17 | 20 | 6.4 | 9.7 | 0.00 | 0.00 | 0.00 | 40 | 1014.6 |
| 20260501163931 | 17 | 27 | 3.2 | 6.4 | 0.00 | 0.00 | 0.00 | 40 | 1014.6 |
| 20260501163426 | 17 | 227 | 4.8 | 9.7 | 0.00 | 0.00 | 0.00 | 39 | 1014.8 |
| 20260501162924 | 17 | 232 | 3.2 | 6.4 | 0.00 | 0.00 | 0.00 | 37 | 1014.8 |
| 20260501162420 | 17 | 332 | 6.4 | 9.7 | 0.00 | 0.00 | 0.00 | 39 | 1015.0 |
| 20260501161917 | 16 | 15 | 4.8 | 4.8 | 0.00 | 0.00 | 0.00 | 38 | 1014.8 |
| 20260501161414 | 16 | 40 | 4.8 | 4.8 | 0.00 | 0.00 | 0.00 | 39 | 1015.0 |
| 20260501160911 | 16 | 40 | 3.2 | 4.8 | 0.00 | 0.00 | 0.00 | 39 | 1015.1 |